KF7SOJ Weather Reports


time (UTC)temp
C
wind
direction
speed
KPH
gust
KPH
rain 1hr
cm
rain 24hr
cm
rain mn
cm
humidity
%
barometer
mb
20260504100131 7 46 16.1 20.9 0.00 0.00 0.00 55 928.4
20260504081524 11 11 9.7 16.1 0.00 0.00 0.00 41 926.2
20260504081019 12 0 9.7 16.1 0.00 0.00 0.00 40 926.0
20260504080516 11 7 17.7 17.7 0.00 0.00 0.00 40 925.9
20260504050334 15 356 3.2 4.8 0.00 0.00 0.00 32 924.7
20260504045831 15 13 1.6 3.2 0.00 0.00 0.00 33 924.4
20260504045326 15 355 0.0 1.6 0.00 0.00 0.00 32 924.7
20260504044823 15 20 0.0 3.2 0.00 0.00 0.00 31 924.6
20260504044321 15 3 0.0 3.2 0.00 0.00 0.00 31 924.7
20260504043818 15 356 3.2 3.2 0.00 0.00 0.00 31 924.7
20260504043315 15 1 3.2 4.8 0.00 0.00 0.00 31 924.6
20260504042812 15 55 0.0 1.6 0.00 0.00 0.00 31 924.4
20260504042308 15 4 0.0 3.2 0.00 0.00 0.00 31 924.4
20260504041805 15 306 0.0 3.2 0.00 0.00 0.00 31 924.4
20260504041301 15 355 3.2 3.2 0.00 0.00 0.00 30 924.4
20260504040757 15 341 3.2 3.2 0.00 0.00 0.00 30 924.3
20260504040255 16 354 3.2 3.2 0.00 0.00 0.00 30 924.3
20260504035750 16 325 0.0 3.2 0.00 0.00 0.00 29 924.6
20260504035248 16 343 3.2 4.8 0.00 0.00 0.00 28 924.3
20260504034745 16 344 3.2 6.4 0.00 0.00 0.00 28 924.3
20260504034242 16 0 4.8 6.4 0.00 0.00 0.00 28 924.1
20260504033740 16 350 1.6 3.2 0.00 0.00 0.00 29 924.2
20260504033237 16 353 1.6 6.4 0.00 0.00 0.00 29 923.9
20260504032734 16 356 1.6 3.2 0.00 0.00 0.00 29 924.1
20260504032231 16 50 0.0 3.2 0.00 0.00 0.00 29 923.9
20260504031728 16 352 0.0 3.2 0.00 0.00 0.00 29 924.1
20260504031225 17 16 1.6 3.2 0.00 0.00 0.00 29 924.0
20260504030721 17 0 3.2 4.8 0.00 0.00 0.00 29 923.8
20260504030219 17 356 3.2 4.8 0.00 0.00 0.00 30 924.1
20260504025715 17 353 4.8 6.4 0.00 0.00 0.00 30 924.0
20260504025211 17 351 6.4 6.4 0.00 0.00 0.00 30 923.9
20260504024709 17 348 6.4 8.0 0.00 0.00 0.00 31 923.7
20260504024205 17 335 6.4 8.0 0.00 0.00 0.00 32 923.8
20260504023702 20 348 9.7 9.7 0.00 0.00 0.00 32 923.7
20260504023158 20 348 9.7 9.7 0.00 0.00 0.00 32 923.5
20260504022654 20 348 9.7 9.7 0.00 0.00 0.00 32 923.6
20260504022150 20 348 9.7 9.7 0.00 0.00 0.00 32 923.7
20260504021649 20 338 4.8 4.8 0.00 0.00 0.00 32 923.7
20260504021145 20 349 8.0 8.0 0.00 0.00 0.00 32 923.3
20260504020642 20 341 4.8 8.0 0.00 0.00 0.00 31 923.5
20260504020138 20 347 6.4 6.4 0.00 0.00 0.00 31 923.4
20260504015635 20 351 3.2 6.4 0.00 0.00 0.00 31 923.4
20260504015131 21 334 4.8 6.4 0.00 0.00 0.00 30 923.4
20260504014627 21 333 3.2 6.4 0.00 0.00 0.00 29 923.4
20260504014124 22 345 6.4 6.4 0.00 0.00 0.00 27 923.4
20260504013621 22 338 6.4 6.4 0.00 0.00 0.00 26 923.4
20260504013118 23 350 8.0 8.0 0.00 0.00 0.00 24 923.4
20260504012616 23 350 8.0 8.0 0.00 0.00 0.00 24 923.3
20260504012114 22 311 4.8 4.8 0.00 0.00 0.00 23 923.4
20260504011610 22 345 4.8 8.0 0.00 0.00 0.00 24 923.4
20260504011106 22 268 3.2 6.4 0.00 0.00 0.00 24 923.4
20260504010602 23 341 9.7 9.7 0.00 0.00 0.00 23 923.5
20260504010058 23 309 3.2 4.8 0.00 0.00 0.00 23 923.6
20260504005555 23 286 6.4 6.4 0.00 0.00 0.00 21 923.6
20260504005052 23 328 3.2 12.9 0.00 0.00 0.00 21 923.5
20260504004550 23 347 9.7 16.1 0.00 0.00 0.00 21 923.5
20260504004047 24 320 0.0 11.3 0.00 0.00 0.00 20 923.7
20260504003543 25 311 4.8 11.3 0.00 0.00 0.00 20 923.6
20260504003040 25 316 8.0 14.5 0.00 0.00 0.00 20 923.7
20260504002537 25 274 16.1 17.7 0.00 0.00 0.00 20 923.5
20260504002035 25 257 14.5 19.3 0.00 0.00 0.00 19 923.7
20260504001532 25 284 8.0 14.5 0.00 0.00 0.00 18 923.8
20260504001028 25 282 6.4 9.7 0.00 0.00 0.00 19 923.8
20260504000525 25 331 1.6 11.3 0.00 0.00 0.00 20 923.9
20260504000023 25 252 16.1 25.7 0.00 0.00 0.00 17 923.8
20260503235521 25 274 14.5 17.7 0.00 0.00 0.00 17 923.9
20260503235017 25 284 6.4 16.1 0.00 0.00 0.00 18 923.9
20260503234515 25 350 8.0 14.5 0.00 0.00 0.00 19 924.0
20260503234014 25 341 11.3 16.1 0.00 0.00 0.00 17 924.0
20260503233509 25 340 8.0 8.0 0.00 0.00 0.00 17 924.2
20260503233005 25 305 4.8 16.1 0.00 0.00 0.00 17 924.3
20260503232502 25 335 8.0 17.7 0.00 0.00 0.00 16 924.3
20260503232000 25 350 9.7 16.1 0.00 0.00 0.00 16 924.4
20260503231458 25 343 14.5 14.5 0.00 0.00 0.00 17 924.3
20260503230954 25 343 8.0 17.7 0.00 0.00 0.00 15 924.6
20260503230450 25 305 3.2 20.9 0.00 0.00 0.00 17 924.7
20260503225948 25 344 9.7 27.4 0.00 0.00 0.00 17 924.7
20260503225445 25 357 12.9 24.1 0.00 0.00 0.00 17 924.6
20260503224940 25 322 4.8 14.5 0.00 0.00 0.00 19 924.6
20260503224437 25 298 4.8 20.9 0.00 0.00 0.00 19 924.9
20260503223935 25 248 20.9 29.0 0.00 0.00 0.00 18 924.6
20260503223433 25 276 6.4 16.1 0.00 0.00 0.00 19 924.9
20260503222928 25 265 16.1 22.5 0.00 0.00 0.00 21 925.1
20260503222427 24 50 4.8 12.9 0.00 0.00 0.00 20 924.9
20260503221925 23 241 3.2 4.8 0.00 0.00 0.00 23 925.0
20260503221423 23 354 8.0 16.1 0.00 0.00 0.00 23 925.4
20260503220919 23 336 4.8 4.8 0.00 0.00 0.00 24 925.2
20260503220416 24 318 6.4 11.3 0.00 0.00 0.00 22 925.3
20260503215913 24 318 6.4 11.3 0.00 0.00 0.00 22 925.6
20260503215410 24 318 6.4 11.3 0.00 0.00 0.00 22 925.6
20260503214908 24 318 6.4 11.3 0.00 0.00 0.00 22 925.7
20260503214405 25 284 9.7 11.3 0.00 0.00 0.00 22 926.0
20260503213902 25 276 6.4 9.7 0.00 0.00 0.00 23 925.7
20260503213400 24 249 9.7 12.9 0.00 0.00 0.00 22 925.9
20260503212856 24 249 9.7 12.9 0.00 0.00 0.00 22 926.0
20260503212354 24 249 9.7 12.9 0.00 0.00 0.00 22 926.1
20260503211851 24 254 11.3 12.9 0.00 0.00 0.00 22 926.1
20260503211348 24 254 11.3 12.9 0.00 0.00 0.00 22 926.5
20260503210843 23 293 27.4 30.6 0.00 0.00 0.00 22 926.5
20260503210341 23 293 27.4 30.6 0.00 0.00 0.00 22 926.5
20260503205835 23 293 27.4 30.6 0.00 0.00 0.00 22 926.9
20260503205332 23 293 27.4 30.6 0.00 0.00 0.00 22 927.0
20260503204829 23 293 27.4 30.6 0.00 0.00 0.00 22 926.8
20260503204326 23 293 27.4 30.6 0.00 0.00 0.00 22 927.1
20260503203823 22 25 6.4 12.9 0.00 0.00 0.00 25 927.0
20260503203321 23 195 9.7 11.3 0.00 0.00 0.00 24 926.9
20260503202817 23 341 6.4 9.7 0.00 0.00 0.00 24 927.1
20260503202316 23 298 8.0 14.5 0.00 0.00 0.00 23 927.4
20260503201814 23 330 17.7 20.9 0.00 0.00 0.00 22 927.3
20260503201310 23 336 6.4 17.7 0.00 0.00 0.00 24 927.5
20260503200808 22 262 6.4 17.7 0.00 0.00 0.00 25 927.5
20260503200303 22 276 4.8 16.1 0.00 0.00 0.00 24 927.6
20260503195801 22 294 8.0 14.5 0.00 0.00 0.00 24 927.7
20260503195257 22 348 6.4 14.5 0.00 0.00 0.00 26 927.7
20260503194755 22 332 4.8 14.5 0.00 0.00 0.00 26 928.0
20260503194250 22 243 14.5 17.7 0.00 0.00 0.00 30 928.0
20260503193746 22 249 11.3 20.9 0.00 0.00 0.00 28 928.1
20260503193243 22 286 4.8 20.9 0.00 0.00 0.00 26 928.1
20260503192739 22 25 6.4 9.7 0.00 0.00 0.00 25 928.1
20260503192234 22 339 19.3 20.9 0.00 0.00 0.00 26 928.5
20260503191731 21 294 9.7 20.9 0.00 0.00 0.00 27 928.4
20260503191228 21 226 16.1 20.9 0.00 0.00 0.00 30 928.5
20260503190725 21 287 8.0 9.7 0.00 0.00 0.00 28 928.6
20260503190221 22 243 9.7 19.3 0.00 0.00 0.00 29 928.7
20260503185719 22 324 8.0 17.7 0.00 0.00 0.00 30 928.8
20260503185214 21 200 4.8 9.7 0.00 0.00 0.00 26 928.9
20260503184709 21 301 8.0 9.7 0.00 0.00 0.00 28 929.1
20260503184206 21 330 3.2 11.3 0.00 0.00 0.00 27 929.1
20260503183702 21 293 14.5 24.1 0.00 0.00 0.00 27 929.2
20260503183200 21 292 12.9 14.5 0.00 0.00 0.00 28 929.2
20260503182658 21 339 8.0 14.5 0.00 0.00 0.00 29 929.3
20260503182156 21 307 4.8 12.9 0.00 0.00 0.00 28 929.4
20260503181652 21 264 14.5 24.1 0.00 0.00 0.00 29 929.5
20260503181149 20 289 4.8 9.7 0.00 0.00 0.00 31 929.6
20260503180646 21 241 19.3 22.5 0.00 0.00 0.00 33 929.5
20260503180144 21 284 9.7 11.3 0.00 0.00 0.00 32 929.6
20260503175640 20 221 12.9 17.7 0.00 0.00 0.00 37 929.8
20260503175138 20 218 12.9 20.9 0.00 0.00 0.00 38 929.8
20260503174634 20 235 9.7 25.7 0.00 0.00 0.00 35 929.8
20260503174132 20 241 16.1 19.3 0.00 0.00 0.00 36 929.9
20260503173626 20 226 14.5 22.5 0.00 0.00 0.00 36 929.9
20260503173123 20 26 3.2 12.9 0.00 0.00 0.00 35 930.1
20260503172620 19 278 11.3 16.1 0.00 0.00 0.00 36 930.1
20260503172118 19 128 1.6 9.7 0.00 0.00 0.00 39 930.2
20260503171614 18 229 3.2 8.0 0.00 0.00 0.00 42 930.4
20260503171111 18 245 14.5 17.7 0.00 0.00 0.00 40 930.3
20260503170608 18 230 19.3 20.9 0.00 0.00 0.00 40 930.4
20260503170105 18 305 6.4 11.3 0.00 0.00 0.00 42 930.6
20260503151000 14 207 14.5 20.9 0.00 0.00 0.00 51 931.3
20260503150456 14 222 14.5 22.5 0.00 0.00 0.00 52 931.3
20260503131349 10 244 3.2 6.4 0.00 0.00 0.00 67 931.8
20260503130847 10 281 3.2 4.8 0.00 0.00 0.00 68 931.9
20260503130344 9 259 6.4 8.0 0.00 0.00 0.00 71 931.8
20260503110738 8 346 6.4 8.0 0.00 0.00 0.00 70 931.9
20260503110235 8 4 6.4 8.0 0.00 0.00 0.00 70 931.9